DW3256 Weather Reports


time (UTC)temp
C
wind
direction
speed
KPH
gust
KPH
rain 1hr
cm
rain 24hr
cm
rain mn
cm
humidity
%
barometer
mb
20260510120330 12 284 0.0 1.6 0.00 0.00 0.00 85 1015.2
20260510115830 12 284 0.0 1.6 0.00 0.00 0.00 86 1015.0
20260510115508 11 284 0.0 1.6 0.00 0.00 0.00 87 1015.2
20260510115430 11 284 0.0 1.6 0.00 0.00 0.00 86 1015.1
20260510114331 11 284 0.0 1.6 0.00 0.00 0.00 88 1015.2
20260510113831 11 284 0.0 1.6 0.00 0.00 0.00 88 1015.1
20260510113328 11 284 0.0 1.6 0.00 0.00 0.00 89 1014.9
20260510112825 10 284 0.0 1.6 0.00 0.00 0.00 89 1014.9
20260510112322 10 284 0.0 1.6 0.00 0.00 0.00 89 1014.8
20260510111824 10 284 0.0 1.6 0.00 0.00 0.00 88 1014.6
20260510111326 10 284 0.0 1.6 0.00 0.00 0.00 89 1014.6
20260510110825 10 284 0.0 1.6 0.00 0.00 0.00 88 1014.6
20260510110324 10 284 0.0 1.6 0.00 0.00 0.00 88 1014.4
20260510105820 10 284 0.0 3.2 0.00 0.00 0.00 89 1014.3
20260510105318 10 285 0.0 3.2 0.00 0.00 0.00 89 1014.2
20260510104819 10 263 0.0 1.6 0.00 0.00 0.00 89 1014.1
20260510104640 10 263 0.0 4.8 0.00 0.00 0.00 89 1014.1
20260510103819 10 259 1.6 4.8 0.00 0.00 0.00 89 1014.0
20260510103322 10 110 1.6 3.2 0.00 0.00 0.00 89 1013.9
20260510102819 10 250 0.0 3.2 0.00 0.00 0.00 89 1013.9
20260510102318 10 251 0.0 3.2 0.00 0.00 0.00 89 1013.8
20260510102142 10 251 1.6 4.8 0.00 0.00 0.00 89 1013.8
20260510101315 10 251 1.6 8.0 0.00 0.00 0.00 88 1013.8
20260510100816 10 270 0.0 8.0 0.00 0.00 0.00 88 1013.7
20260510100319 10 273 0.0 1.6 0.00 0.00 0.00 89 1013.6
20260510095815 10 273 0.0 3.2 0.00 0.00 0.00 89 1013.5
20260510095316 10 273 0.0 4.8 0.00 0.00 0.00 88 1013.5
20260510094813 10 273 0.0 4.8 0.00 0.00 0.00 89 1013.5
20260510094316 10 273 0.0 3.2 0.00 0.00 0.00 89 1013.6
20260510093810 10 273 0.0 0.0 0.00 0.00 0.00 88 1013.7
20260510093310 10 273 0.0 3.2 0.00 0.00 0.00 88 1013.7
20260510092811 10 273 0.0 3.2 0.00 0.00 0.00 88 1013.6
20260510092309 10 273 1.6 4.8 0.00 0.00 0.00 88 1013.6
20260510092119 10 273 1.6 4.8 0.00 0.00 0.00 88 1013.6
20260510091306 10 273 0.0 3.2 0.00 0.00 0.00 87 1013.5
20260510090800 10 272 0.0 3.2 0.00 0.00 0.00 87 1013.5
20260510090255 10 272 0.0 3.2 0.00 0.00 0.00 86 1013.3
20260510085754 11 272 0.0 3.2 0.00 0.00 0.00 86 1013.3
20260510085241 11 272 0.0 3.2 0.00 0.00 0.00 86 1013.2
20260510084735 11 272 0.0 3.2 0.00 0.00 0.00 87 1013.2
20260510084236 11 270 0.0 4.8 0.00 0.00 0.00 86 1013.2
20260510083732 11 270 1.6 4.8 0.00 0.00 0.00 86 1013.1
20260510083230 11 266 1.6 4.8 0.00 0.00 0.00 86 1013.0
20260510082729 11 266 1.6 4.8 0.00 0.00 0.00 86 1013.0
20260510082233 10 10 1.6 4.8 0.00 0.00 0.00 86 1013.0
20260510081729 10 297 0.0 4.8 0.00 0.00 0.00 86 1013.0
20260510081231 11 342 0.0 3.2 0.00 0.00 0.00 86 1012.9
20260510081059 11 343 1.6 4.8 0.00 0.00 0.00 86 1012.9
20260510080231 11 344 1.6 4.8 0.00 0.00 0.00 86 1012.9
20260510075730 11 269 1.6 6.4 0.00 0.00 0.00 85 1012.8
20260510075233 11 269 1.6 6.4 0.00 0.00 0.00 85 1012.8
20260510074729 11 300 0.0 4.8 0.00 0.00 0.00 85 1012.7
20260510074229 11 349 0.0 4.8 0.00 0.00 0.00 85 1012.7
20260510073732 11 342 1.6 4.8 0.00 0.00 0.00 85 1012.8
20260510073232 11 293 0.0 3.2 0.00 0.00 0.00 85 1012.8
20260510072730 11 293 0.0 0.0 0.00 0.00 0.00 85 1012.7
20260510072617 11 293 0.0 3.2 0.00 0.00 0.00 85 1012.6
20260510071729 11 293 0.0 3.2 0.00 0.00 0.00 84 1012.6
20260510071230 11 293 1.6 4.8 0.00 0.00 0.00 84 1012.5
20260510070731 11 293 1.6 4.8 0.00 0.00 0.00 83 1012.5
20260510070451 11 304 1.6 4.8 0.00 0.00 0.00 83 1012.4
20260510065731 11 330 0.0 4.8 0.00 0.00 0.00 83 1012.3
20260510065233 11 330 0.0 4.8 0.00 0.00 0.00 83 1012.4
20260510064733 11 335 0.0 3.2 0.00 0.00 0.00 83 1012.4
20260510064229 11 335 1.6 6.4 0.00 0.00 0.00 82 1012.5
20260510063729 11 261 1.6 6.4 0.00 0.00 0.00 82 1012.6
20260510063230 12 261 0.0 6.4 0.00 0.00 0.00 82 1012.6
20260510063047 11 304 0.0 3.2 0.00 0.00 0.00 82 1012.6
20260510062229 11 298 0.0 3.2 0.00 0.00 0.00 82 1012.5
20260510061730 11 278 0.0 3.2 0.00 0.00 0.00 82 1012.5
20260510061230 11 277 0.0 4.8 0.00 0.00 0.00 82 1012.4
20260510060729 11 277 1.6 4.8 0.00 0.00 0.00 82 1012.4
20260510060232 11 273 1.6 4.8 0.00 0.00 0.00 81 1012.5
20260510055730 11 272 1.6 6.4 0.00 0.00 0.00 81 1012.6
20260510055233 12 259 1.6 6.4 0.00 0.00 0.00 81 1012.6
20260510054730 12 71 1.6 4.8 0.00 0.00 0.00 80 1012.5
20260510054241 12 71 1.6 4.8 0.00 0.00 0.00 81 1012.5
20260510054218 12 345 1.6 3.2 0.00 0.00 0.00 80 1012.5
20260510053820 12 345 0.0 3.2 0.00 0.00 0.00 80 1012.5
20260510052736 12 19 1.6 3.2 0.00 0.00 0.00 80 1012.6
20260510052228 12 286 1.6 3.2 0.00 0.00 0.00 79 1012.5
20260510051727 12 287 1.6 6.4 0.00 0.00 0.00 78 1012.5
20260510051229 13 286 1.6 6.4 0.00 0.00 0.00 78 1012.6
20260510050730 13 19 0.0 3.2 0.00 0.00 0.00 77 1012.5
20260510050531 13 37 0.0 3.2 0.00 0.00 0.00 77 1012.5
20260510045724 13 37 0.0 4.8 0.00 0.00 0.00 76 1012.6
20260510045236 13 36 0.0 4.8 0.00 0.00 0.00 76 1012.5
20260510044720 13 37 0.0 3.2 0.00 0.00 0.00 76 1012.4
20260510044221 13 37 1.6 3.2 0.00 0.00 0.00 75 1012.5
20260510044034 13 37 1.6 3.2 0.00 0.00 0.00 75 1012.6
20260510043221 13 37 1.6 3.2 0.00 0.00 0.00 75 1012.6
20260510043101 14 37 1.6 3.2 0.00 0.00 0.00 74 1012.7
20260510042215 14 37 1.6 3.2 0.00 0.00 0.00 74 1012.6
20260510041711 14 37 1.6 3.2 0.00 0.00 0.00 74 1012.5
20260510041211 14 43 1.6 3.2 0.00 0.00 0.00 74 1012.4
20260510040716 14 44 1.6 3.2 0.00 0.00 0.00 73 1012.5
20260510040507 14 71 1.6 3.2 0.00 0.00 0.00 74 1012.5
20260510035709 14 14 1.6 3.2 0.00 0.00 0.00 74 1012.5
20260510035207 14 314 1.6 4.8 0.00 0.00 0.00 74 1012.5
20260510034708 14 314 1.6 4.8 0.00 0.00 0.00 74 1012.6
20260510034207 14 320 1.6 4.8 0.00 0.00 0.00 72 1012.5
20260510033701 14 320 1.6 4.8 0.00 0.00 0.00 73 1012.6
20260510033201 15 3 1.6 4.8 0.00 0.00 0.00 72 1012.5
20260510032703 15 251 1.6 6.4 0.00 0.00 0.00 72 1012.4
20260510032202 15 29 1.6 6.4 0.00 0.00 0.00 72 1012.4
20260510031701 15 326 1.6 4.8 0.00 0.00 0.00 72 1012.3
20260510031201 14 306 1.6 4.8 0.00 0.00 0.00 73 1012.4
20260510030718 14 300 1.6 3.2 0.00 0.00 0.00 74 1012.5
20260510030708 14 304 1.6 4.8 0.00 0.00 0.00 74 1012.4
20260510030307 14 301 1.6 3.2 0.00 0.00 0.00 74 1012.5
20260510025206 14 301 1.6 3.2 0.00 0.00 0.00 72 1012.4
20260510024701 14 300 0.0 3.2 0.00 0.00 0.00 73 1012.4
20260510024508 14 300 1.6 3.2 0.00 0.00 0.00 72 1012.3
20260510023701 14 300 1.6 3.2 0.00 0.00 0.00 72 1012.3
20260510023512 15 299 1.6 4.8 0.00 0.00 0.00 71 1012.3
20260510022704 15 299 1.6 4.8 0.00 0.00 0.00 70 1012.2
20260510022205 15 299 1.6 3.2 0.00 0.00 0.00 70 1012.1
20260510021701 15 299 1.6 3.2 0.00 0.00 0.00 70 1012.1
20260510021201 15 299 0.0 3.2 0.00 0.00 0.00 70 1012.0
20260510020702 15 299 0.0 3.2 0.00 0.00 0.00 69 1012.0
20260510020201 15 299 0.0 3.2 0.00 0.00 0.00 69 1011.9
20260510015701 15 299 1.6 3.2 0.00 0.00 0.00 68 1011.8
20260510015201 15 299 1.6 3.2 0.00 0.00 0.00 68 1011.6
20260510014707 15 299 0.0 3.2 0.00 0.00 0.00 68 1011.5
20260510014530 15 295 1.6 3.2 0.00 0.00 0.00 68 1011.4
20260510013704 16 295 1.6 4.8 0.00 0.00 0.00 66 1011.3
20260510013202 16 295 1.6 4.8 0.00 0.00 0.00 66 1011.2
20260510012700 16 64 1.6 3.2 0.00 0.00 0.00 65 1010.9
20260510012452 16 276 0.0 1.6 0.00 0.00 0.00 66 1011.1
20260510011700 16 274 0.0 8.0 0.00 0.00 0.00 66 1010.8
20260510011202 16 274 1.6 8.0 0.00 0.00 0.00 65 1010.8
20260510010705 16 351 1.6 3.2 0.00 0.00 0.00 65 1010.7
20260510010201 17 351 1.6 3.2 0.00 0.00 0.00 65 1010.7
20260510005702 17 320 1.6 3.2 0.00 0.00 0.00 62 1010.6
20260510005201 17 317 1.6 4.8 0.00 0.00 0.00 63 1010.7
20260510005024 17 316 1.6 4.8 0.00 0.00 0.00 62 1010.7
20260510004202 17 298 1.6 4.8 0.00 0.00 0.00 60 1010.7
20260510003703 18 67 1.6 4.8 0.00 0.00 0.00 61 1010.7
20260510003203 18 11 1.6 3.2 0.00 0.00 0.00 60 1010.7
20260510003033 18 58 1.6 3.2 0.00 0.00 0.00 59 1010.6
20260510002201 18 60 1.6 3.2 0.00 0.00 0.00 59 1010.5
20260510001912 19 103 1.6 6.4 0.00 0.00 0.00 56 1010.3
20260510001829 19 103 1.6 6.4 0.00 0.00 0.00 58 1010.4
20260510000702 19 104 1.6 6.4 0.00 0.00 0.00 55 1010.2
20260510000203 20 357 1.6 4.8 0.00 0.00 0.00 55 1010.1
20260509235703 20 85 1.6 3.2 0.00 0.00 0.00 54 1010.0
20260509235205 20 78 1.6 4.8 0.00 0.00 0.00 53 1009.9
20260509235022 20 70 1.6 4.8 0.00 0.00 0.00 52 1009.8
20260509234205 21 357 3.2 8.0 0.00 0.00 0.00 52 1009.8
20260509233701 21 354 3.2 8.0 0.00 0.00 0.00 51 1009.6
20260509233201 21 258 4.8 17.7 0.00 0.00 0.00 47 1009.7
20260509232700 21 255 3.2 17.7 0.00 0.00 0.00 47 1009.7
20260509232459 21 180 3.2 9.7 0.00 0.00 0.00 47 1009.6
20260509232019 21 296 3.2 6.4 0.00 0.00 0.00 49 1009.7
20260509231202 21 125 3.2 11.3 0.00 0.00 0.00 48 1009.5
20260509230702 21 268 3.2 11.3 0.00 0.00 0.00 48 1009.5
20260509230201 22 127 3.2 9.7 0.00 0.00 0.00 48 1009.4
20260509225705 22 301 3.2 6.4 0.00 0.00 0.00 47 1009.4
20260509225202 22 301 3.2 11.3 0.00 0.00 0.00 48 1009.4
20260509224703 22 161 3.2 11.3 0.00 0.00 0.00 48 1009.4
20260509224204 22 260 3.2 8.0 0.00 0.00 0.00 47 1009.5
20260509223705 22 231 4.8 12.9 0.00 0.00 0.00 46 1009.4
20260509223200 22 283 6.4 12.9 0.00 0.00 0.00 45 1009.4
20260509222701 22 264 6.4 16.1 0.00 0.00 0.00 46 1009.3
20260509222538 22 123 4.8 16.1 0.00 0.00 0.00 45 1009.3
20260509221701 22 280 3.2 12.9 0.00 0.00 0.00 47 1009.3
20260509221202 22 88 6.4 12.9 0.00 0.00 0.00 46 1009.3
20260509220704 22 278 6.4 16.1 0.00 0.00 0.00 46 1009.3
20260509220201 22 120 3.2 16.1 0.00 0.00 0.00 46 1009.3
20260509215700 22 353 3.2 9.7 0.00 0.00 0.00 47 1009.2
20260509215203 22 297 3.2 9.7 0.00 0.00 0.00 47 1009.2
20260509214704 22 202 3.2 9.7 0.00 0.00 0.00 47 1009.2
20260509214202 23 333 3.2 6.4 0.00 0.00 0.00 51 1009.1
20260509213701 23 301 1.6 6.4 0.00 0.00 0.00 46 1008.9
20260509213158 23 80 1.6 6.4 0.00 0.00 0.00 45 1008.9
20260509212651 23 251 1.6 4.8 0.00 0.00 0.00 44 1009.0
20260509212145 23 183 1.6 6.4 0.00 0.00 0.00 43 1008.9
20260509211644 22 287 1.6 6.4 0.00 0.00 0.00 44 1008.8
20260509211143 22 278 1.6 11.3 0.00 0.00 0.00 47 1008.7
20260509210643 22 279 3.2 11.3 0.00 0.00 0.00 45 1008.7
20260509210144 22 274 1.6 6.4 0.00 0.00 0.00 45 1008.5
20260509205950 22 247 0.0 1.6 0.00 0.00 0.00 50 1008.5
20260509205143 22 247 1.6 4.8 0.00 0.00 0.00 48 1008.7
20260509204639 22 247 1.6 4.8 0.00 0.00 0.00 46 1008.5
20260509204138 22 166 1.6 6.4 0.00 0.00 0.00 48 1008.5
20260509203636 22 278 3.2 6.4 0.00 0.00 0.00 49 1008.5
20260509203136 22 277 4.8 6.4 0.00 0.00 0.00 47 1008.5
20260509202635 22 270 3.2 9.7 0.00 0.00 0.00 46 1008.4
20260509202134 22 283 1.6 9.7 0.00 0.00 0.00 46 1008.4
20260509201632 22 302 0.0 4.8 0.00 0.00 0.00 49 1008.5
20260509201136 23 347 0.0 1.6 0.00 0.00 0.00 47 1008.4
20260509200631 23 347 1.6 9.7 0.00 0.00 0.00 45 1008.4
20260509200435 23 347 3.2 9.7 0.00 0.00 0.00 45 1008.4
20260509195628 23 293 3.2 4.8 0.00 0.00 0.00 47 1008.5
20260509195456 23 299 3.2 6.4 0.00 0.00 0.00 45 1008.4
20260509194633 23 24 3.2 6.4 0.00 0.00 0.00 47 1008.5
20260509194128 23 312 1.6 4.8 0.00 0.00 0.00 46 1008.5
20260509193619 23 37 1.6 6.4 0.00 0.00 0.00 45 1008.5
20260509193113 23 239 3.2 9.7 0.00 0.00 0.00 44 1008.5
20260509192614 23 147 4.8 11.3 0.00 0.00 0.00 44 1008.3
20260509192559 23 291 3.2 12.9 0.00 0.00 0.00 46 1008.5
20260509192555 23 276 4.8 12.9 0.00 0.00 0.00 45 1008.4
20260509191113 22 285 3.2 6.4 0.00 0.00 0.00 48 1008.7
20260509190612 22 270 3.2 6.4 0.00 0.00 0.00 48 1008.7
20260509190113 22 324 1.6 6.4 0.00 0.00 0.00 49 1008.9
20260509185613 22 328 3.2 6.4 0.00 0.00 0.00 50 1008.8
20260509185111 22 277 8.0 17.7 0.00 0.00 0.00 46 1008.9
20260509184611 22 293 4.8 17.7 0.00 0.00 0.00 46 1008.9
20260509184110 23 285 3.2 12.9 0.00 0.00 0.00 48 1008.7
20260509183611 22 315 4.8 14.5 0.00 0.00 0.00 50 1008.9
20260509183107 22 56 4.8 14.5 0.00 0.00 0.00 48 1008.8
20260509182953 22 319 6.4 12.9 0.00 0.00 0.00 47 1008.9
20260509182106 23 293 6.4 12.9 0.00 0.00 0.00 46 1009.0
20260509181907 22 276 6.4 14.5 0.00 0.00 0.00 48 1009.2
20260509181106 22 303 8.0 14.5 0.00 0.00 0.00 47 1009.2
20260509180602 22 271 8.0 17.7 0.00 0.00 0.00 46 1009.2
20260509180105 23 285 6.4 17.7 0.00 0.00 0.00 45 1009.3
20260509175559 23 280 8.0 14.5 0.00 0.00 0.00 46 1009.3
20260509175306 22 306 4.8 11.3 0.00 0.00 0.00 45 1009.2
20260509175210 23 299 6.4 14.5 0.00 0.00 0.00 45 1009.3
20260509174043 22 278 6.4 17.7 0.00 0.00 0.00 47 1009.4
20260509173543 22 299 8.0 17.7 0.00 0.00 0.00 44 1009.4
20260509173042 22 294 4.8 12.9 0.00 0.00 0.00 45 1009.3
20260509172541 22 286 3.2 11.3 0.00 0.00 0.00 44 1009.3
20260509172044 22 56 4.8 11.3 0.00 0.00 0.00 46 1009.4
20260509171614 22 292 6.4 14.5 0.00 0.00 0.00 45 1009.8
20260509171605 22 311 6.4 14.5 0.00 0.00 0.00 43 1009.7
20260509171553 22 283 6.4 14.5 0.00 0.00 0.00 45 1009.5
20260509170040 22 297 6.4 14.5 0.00 0.00 0.00 49 1009.9
20260509165917 22 299 8.0 16.1 0.00 0.00 0.00 50 1009.9
20260509165040 22 266 8.0 16.1 0.00 0.00 0.00 50 1010.0
20260509164538 22 285 4.8 12.9 0.00 0.00 0.00 53 1010.2
20260509164037 21 292 3.2 9.7 0.00 0.00 0.00 58 1010.1
20260509163539 21 283 3.2 6.4 0.00 0.00 0.00 61 1010.3
20260509163036 20 287 1.6 4.8 0.00 0.00 0.00 63 1010.3
20260509162837 20 77 1.6 3.2 0.00 0.00 0.00 65 1010.2
20260509162036 19 177 1.6 3.2 0.00 0.00 0.00 66 1010.3
20260509161532 19 46 1.6 4.8 0.00 0.00 0.00 66 1010.3
20260509161035 19 75 1.6 4.8 0.00 0.00 0.00 65 1010.4
20260509160531 19 63 1.6 3.2 0.00 0.00 0.00 66 1010.4
20260509160032 19 63 1.6 4.8 0.00 0.00 0.00 66 1010.3
20260509155539 19 63 1.6 4.8 0.00 0.00 0.00 65 1010.2
20260509155036 19 90 1.6 4.8 0.00 0.00 0.00 67 1010.0
20260509154541 19 89 1.6 4.8 0.00 0.00 0.00 67 1010.1
20260509154037 18 301 1.6 4.8 0.00 0.00 0.00 66 1010.2
20260509153852 18 301 1.6 6.4 0.00 0.00 0.00 62 1010.4
20260509153033 18 89 3.2 6.4 0.00 0.00 0.00 61 1010.5
20260509152902 18 289 3.2 6.4 0.00 0.00 0.00 63 1010.8
20260509152030 18 276 1.6 6.4 0.00 0.00 0.00 64 1010.9
20260509151529 18 60 1.6 6.4 0.00 0.00 0.00 63 1010.7
20260509151030 18 249 1.6 6.4 0.00 0.00 0.00 65 1010.7
20260509150531 18 111 1.6 6.4 0.00 0.00 0.00 64 1010.7
20260509150029 17 287 1.6 6.4 0.00 0.00 0.00 67 1010.7
20260509145529 17 283 1.6 6.4 0.00 0.00 0.00 66 1010.7
20260509145029 17 283 1.6 6.4 0.00 0.00 0.00 68 1010.6
20260509144031 17 295 0.0 4.8 0.00 0.00 0.00 69 1010.9
20260509143857 17 298 0.0 3.2 0.00 0.00 0.00 69 1011.1
20260509143029 17 287 1.6 4.8 0.00 0.00 0.00 70 1011.1
20260509142532 16 296 1.6 6.4 0.00 0.00 0.00 70 1011.2
20260509142029 16 296 1.6 6.4 0.00 0.00 0.00 69 1011.2
20260509141530 16 293 1.6 4.8 0.00 0.00 0.00 69 1011.1
20260509141029 16 293 1.6 4.8 0.00 0.00 0.00 70 1011.1
20260509140909 16 299 1.6 4.8 0.00 0.00 0.00 71 1011.1
20260509140028 16 277 1.6 3.2 0.00 0.00 0.00 71 1010.9
20260509135854 15 314 1.6 3.2 0.00 0.00 0.00 71 1011.2
20260509135032 15 294 1.6 4.8 0.00 0.00 0.00 71 1010.9
20260509134530 15 291 1.6 4.8 0.00 0.00 0.00 73 1010.9
20260509134033 15 244 0.0 4.8 0.00 0.00 0.00 74 1011.1
20260509133531 14 316 0.0 1.6 0.00 0.00 0.00 75 1010.8
20260509133026 14 316 0.0 3.2 0.00 0.00 0.00 75 1011.2
20260509132522 13 314 0.0 3.2 0.00 0.00 0.00 76 1011.6
20260509132020 13 330 0.0 3.2 0.00 0.00 0.00 76 1011.7
20260509131519 13 331 0.0 3.2 0.00 0.00 0.00 75 1011.9
20260509131352 13 10 0.0 3.2 0.00 0.00 0.00 76 1011.9
20260509130521 13 12 0.0 1.6 0.00 0.00 0.00 77 1011.9
20260509130019 13 29 0.0 1.6 0.00 0.00 0.00 76 1011.9
20260509125517 13 29 0.0 6.4 0.00 0.00 0.00 76 1011.9
20260509125013 12 29 0.0 6.4 0.00 0.00 0.00 76 1012.0
20260509124815 12 325 0.0 4.8 0.00 0.00 0.00 77 1012.1
20260509124012 12 320 1.6 4.8 0.00 0.00 0.00 77 1012.2
20260509123509 12 326 1.6 3.2 0.00 0.00 0.00 77 1012.1
20260509123009 12 326 3.2 4.8 0.00 0.00 0.00 78 1012.1
20260509122505 12 326 3.2 4.8 0.00 0.00 0.00 80 1012.2
20260509122003 11 342 1.6 3.2 0.00 0.00 0.00 80 1012.2
20260509121503 11 12 0.0 1.6 0.00 0.00 0.00 84 1012.1
20260509121001 11 14 0.0 0.0 0.00 0.00 0.00 84 1012.2
20260509120503 11 14 0.0 0.0 0.00 0.00 0.00 82 1012.2